| time (UTC) | temp F | wind direction | speed MPH | gust MPH | rain 1hr in | rain 24hr in | rain mn in | humidity % | barometer mb |
| 20260906054513 | 71 | 8 | 1.0 | 5.0 | 0.00 | 0.00 | 0.00 | 89 | 1016.6 |
| 20260906053010 | 71 | 36 | 1.0 | 4.0 | 0.00 | 0.00 | 0.00 | 89 | 1016.5 |
| 20260906051508 | 71 | 352 | 1.0 | 7.0 | 0.00 | 0.00 | 0.00 | 89 | 1016.4 |
| 20260906050006 | 71 | 350 | 1.0 | 7.0 | 0.00 | 0.00 | 0.00 | 89 | 1016.3 |
| 20260906044504 | 71 | 5 | 1.0 | 6.0 | 0.00 | 0.00 | 0.00 | 89 | 1016.2 |
| 20260906043002 | 71 | 353 | 0.0 | 5.0 | 0.00 | 0.00 | 0.00 | 89 | 1016.1 |
| 20260906041600 | 71 | 4 | 1.0 | 7.0 | 0.00 | 0.00 | 0.00 | 89 | 1015.8 |
| 20260906040118 | 71 | 349 | 0.0 | 4.0 | 0.00 | 0.00 | 0.00 | 89 | 1015.6 |
| 20260906034657 | 71 | 3 | 0.0 | 5.0 | 0.00 | 0.00 | 0.00 | 89 | 1015.5 |
| 20260906033106 | 71 | 6 | 1.0 | 6.0 | 0.00 | 0.00 | 0.00 | 88 | 1015.3 |
| 20260906031559 | 71 | 101 | 0.0 | 4.0 | 0.00 | 0.00 | 0.00 | 87 | 1015.4 |
| 20260906030054 | 71 | 316 | 0.0 | 9.0 | 0.00 | 0.00 | 0.00 | 87 | 1015.3 |
| 20260906024605 | 71 | 352 | 0.0 | 6.0 | 0.00 | 0.00 | 0.00 | 87 | 1015.4 |
| 20260906023053 | 72 | 24 | 1.0 | 4.0 | 0.00 | 0.00 | 0.00 | 87 | 1015.4 |
| 20260906021553 | 72 | 335 | 2.0 | 6.0 | 0.00 | 0.00 | 0.00 | 87 | 1015.3 |
| 20260906020054 | 72 | 19 | 2.0 | 7.0 | 0.00 | 0.00 | 0.00 | 86 | 1015.2 |
| 20260906014556 | 72 | 346 | 1.0 | 8.0 | 0.00 | 0.00 | 0.00 | 86 | 1015.4 |
| 20260906013050 | 72 | 25 | 0.0 | 5.0 | 0.00 | 0.00 | 0.00 | 86 | 1015.4 |
| 20260906011548 | 72 | 341 | 2.0 | 9.0 | 0.00 | 0.00 | 0.00 | 85 | 1015.3 |
| 20260906010046 | 72 | 359 | 3.0 | 9.0 | 0.00 | 0.00 | 0.00 | 85 | 1015.3 |
| 20260906004545 | 72 | 352 | 1.0 | 9.0 | 0.00 | 0.00 | 0.00 | 86 | 1015.2 |
| 20260906003044 | 72 | 39 | 3.0 | 12.0 | 0.00 | 0.00 | 0.00 | 86 | 1014.9 |
| 20260906001541 | 72 | 22 | 2.0 | 9.0 | 0.00 | 0.00 | 0.00 | 86 | 1014.8 |
| 20260906000041 | 73 | 349 | 1.0 | 6.0 | 0.00 | 0.00 | 0.00 | 85 | 1014.5 |
| 20260905234537 | 75 | 358 | 2.0 | 8.0 | 0.00 | 0.00 | 0.00 | 83 | 1014.4 |
| 20260905233040 | 76 | 8 | 1.0 | 8.0 | 0.00 | 0.00 | 0.00 | 82 | 1014.5 |
| 20260905231541 | 77 | 12 | 2.0 | 10.0 | 0.00 | 0.00 | 0.00 | 79 | 1014.2 |
| 20260905230032 | 79 | 81 | 0.0 | 5.0 | 0.00 | 0.00 | 0.00 | 77 | 1014.0 |
| 20260905224531 | 80 | 6 | 2.0 | 11.0 | 0.00 | 0.00 | 0.00 | 75 | 1013.8 |
| 20260905223034 | 81 | 214 | 0.0 | 8.0 | 0.00 | 0.00 | 0.00 | 74 | 1013.7 |
| 20260905221534 | 81 | 2 | 2.0 | 8.0 | 0.00 | 0.00 | 0.00 | 74 | 1013.5 |
| 20260905220029 | 81 | 335 | 1.0 | 7.0 | 0.00 | 0.00 | 0.00 | 72 | 1013.6 |
| 20260905214534 | 81 | 34 | 2.0 | 7.0 | 0.00 | 0.00 | 0.00 | 73 | 1013.7 |
| 20260905213029 | 83 | 10 | 1.0 | 7.0 | 0.00 | 0.00 | 0.00 | 71 | 1013.6 |
| 20260905211534 | 81 | 340 | 2.0 | 5.0 | 0.00 | 0.00 | 0.00 | 73 | 1013.6 |
| 20260905210026 | 81 | 6 | 2.0 | 8.0 | 0.00 | 0.00 | 0.00 | 74 | 1013.7 |
| 20260905204528 | 81 | 2 | 2.0 | 9.0 | 0.00 | 0.00 | 0.00 | 74 | 1013.8 |
| 20260905203025 | 80 | 331 | 1.0 | 4.0 | 0.00 | 0.00 | 0.00 | 78 | 1013.9 |
| 20260905201524 | 79 | 18 | 3.0 | 6.0 | 0.00 | 0.00 | 0.00 | 79 | 1014.0 |
| 20260905200024 | 78 | 342 | 4.0 | 9.0 | 0.00 | 0.00 | 0.00 | 80 | 1014.0 |
| 20260905194623 | 78 | 330 | 3.0 | 7.0 | 0.00 | 0.00 | 0.00 | 81 | 1014.1 |
| 20260905193022 | 78 | 3 | 2.0 | 7.0 | 0.00 | 0.00 | 0.00 | 81 | 1014.0 |
| 20260905191522 | 78 | 23 | 2.0 | 9.0 | 0.00 | 0.00 | 0.00 | 80 | 1014.2 |
| 20260905190021 | 78 | 34 | 2.0 | 10.0 | 0.00 | 0.00 | 0.00 | 81 | 1014.3 |
| 20260905184522 | 79 | 352 | 4.0 | 9.0 | 0.00 | 0.00 | 0.00 | 80 | 1014.2 |
| 20260905183020 | 79 | 351 | 5.0 | 10.0 | 0.00 | 0.00 | 0.00 | 78 | 1014.3 |
| 20260905181519 | 79 | 358 | 4.0 | 8.0 | 0.00 | 0.00 | 0.00 | 79 | 1014.2 |
| 20260905180017 | 80 | 359 | 2.0 | 12.0 | 0.00 | 0.00 | 0.00 | 79 | 1014.1 |
| 20260905174517 | 80 | 7 | 4.0 | 9.0 | 0.00 | 0.00 | 0.00 | 78 | 1014.1 |
| 20260905173016 | 81 | 335 | 2.0 | 7.0 | 0.00 | 0.00 | 0.00 | 77 | 1014.0 |
| 20260905171529 | 81 | 25 | 3.0 | 8.0 | 0.00 | 0.00 | 0.00 | 78 | 1014.0 |
| 20260905170015 | 81 | 18 | 3.0 | 8.0 | 0.00 | 0.00 | 0.00 | 78 | 1014.1 |
| 20260905164522 | 81 | 29 | 1.0 | 8.0 | 0.00 | 0.00 | 0.00 | 78 | 1014.1 |
| 20260905163012 | 82 | 342 | 2.0 | 5.0 | 0.00 | 0.00 | 0.00 | 76 | 1014.1 |
| 20260905161511 | 81 | 353 | 3.0 | 6.0 | 0.00 | 0.00 | 0.00 | 78 | 1014.1 |
| 20260905160020 | 81 | 151 | 0.0 | 6.0 | 0.00 | 0.00 | 0.00 | 79 | 1014.1 |
| 20260905154508 | 80 | 262 | 0.0 | 6.0 | 0.00 | 0.00 | 0.00 | 82 | 1013.9 |
| 20260905153005 | 79 | 356 | 2.0 | 5.0 | 0.00 | 0.00 | 0.00 | 82 | 1014.0 |
| 20260905151503 | 78 | 5 | 1.0 | 9.0 | 0.00 | 0.00 | 0.00 | 85 | 1013.8 |
| 20260905150001 | 78 | 8 | 2.0 | 8.0 | 0.00 | 0.00 | 0.00 | 84 | 1013.6 |
| 20260905144501 | 78 | 1 | 4.0 | 9.0 | 0.00 | 0.00 | 0.00 | 84 | 1013.4 |
| 20260905143100 | 77 | 23 | 3.0 | 10.0 | 0.00 | 0.00 | 0.00 | 85 | 1013.4 |
| 20260905141600 | 76 | 354 | 3.0 | 7.0 | 0.00 | 0.00 | 0.00 | 88 | 1013.4 |
| 20260905140101 | 75 | 8 | 1.0 | 8.0 | 0.00 | 0.00 | 0.00 | 91 | 1013.3 |
| 20260905134557 | 74 | 5 | 1.0 | 6.0 | 0.00 | 0.00 | 0.00 | 92 | 1013.3 |
| 20260905133056 | 74 | 22 | 1.0 | 8.0 | 0.00 | 0.00 | 0.00 | 93 | 1013.4 |
| 20260905131556 | 74 | 16 | 3.0 | 7.0 | 0.00 | 0.00 | 0.00 | 94 | 1013.7 |
| 20260905130052 | 74 | 348 | 0.0 | 6.0 | 0.00 | 0.00 | 0.00 | 94 | 1013.1 |
| 20260905124550 | 74 | 25 | 0.0 | 5.0 | 0.00 | 0.00 | 0.00 | 94 | 1012.7 |
| 20260905123050 | 74 | 6 | 0.0 | 4.0 | 0.00 | 0.00 | 0.00 | 95 | 1012.6 |
| 20260905121546 | 74 | 18 | 0.0 | 3.0 | 0.00 | 0.00 | 0.00 | 94 | 1012.5 |
| 20260905120044 | 74 | 10 | 0.0 | 2.0 | 0.00 | 0.00 | 0.00 | 94 | 1012.3 |
| 20260905114542 | 74 | 356 | 1.0 | 5.0 | 0.00 | 0.00 | 0.00 | 94 | 1012.1 |
| 20260905113045 | 74 | 359 | 0.0 | 4.0 | 0.00 | 0.00 | 0.00 | 94 | 1011.8 |
| 20260905111540 | 74 | 20 | 0.0 | 3.0 | 0.00 | 0.00 | 0.00 | 93 | 1011.8 |
| 20260905110038 | 75 | 13 | 0.0 | 1.0 | 0.00 | 0.00 | 0.00 | 93 | 1011.5 |
| 20260905104536 | 75 | 16 | 0.0 | 3.0 | 0.00 | 0.00 | 0.00 | 93 | 1011.4 |
| 20260905103043 | 76 | 6 | 0.0 | 1.0 | 0.00 | 0.00 | 0.00 | 94 | 1011.5 |
| 20260905101536 | 76 | 37 | 0.0 | 1.0 | 0.00 | 0.00 | 0.00 | 94 | 1011.5 |
| 20260905100039 | 76 | 52 | 0.0 | 1.0 | 0.00 | 0.00 | 0.00 | 94 | 1011.5 |
| 20260905094534 | 76 | 86 | 0.0 | 0.0 | 0.00 | 0.00 | 0.00 | 94 | 1011.5 |
| 20260905093044 | 76 | 88 | 0.0 | 1.0 | 0.00 | 0.00 | 0.00 | 94 | 1011.4 |
| 20260905091534 | 76 | 12 | 0.0 | 0.0 | 0.00 | 0.00 | 0.00 | 94 | 1011.3 |
| 20260905090036 | 75 | 12 | 0.0 | 0.0 | 0.00 | 0.00 | 0.00 | 94 | 1011.3 |
| 20260905084531 | 75 | 9 | 0.0 | 0.0 | 0.00 | 0.00 | 0.00 | 93 | 1011.4 |
| 20260905083030 | 75 | 10 | 0.0 | 0.0 | 0.00 | 0.00 | 0.00 | 93 | 1011.4 |
| 20260905081530 | 75 | 8 | 0.0 | 0.0 | 0.00 | 0.00 | 0.00 | 93 | 1011.4 |
| 20260905080028 | 75 | 10 | 0.0 | 0.0 | 0.00 | 0.00 | 0.00 | 92 | 1011.3 |
| 20260905074526 | 75 | 6 | 0.0 | 0.0 | 0.00 | 0.00 | 0.00 | 92 | 1011.3 |
| 20260905073025 | 76 | 8 | 0.0 | 0.0 | 0.00 | 0.00 | 0.00 | 91 | 1011.4 |
| 20260905071522 | 76 | 11 | 0.0 | 0.0 | 0.00 | 0.00 | 0.00 | 91 | 1011.7 |
| 20260905070028 | 76 | 10 | 0.0 | 0.0 | 0.00 | 0.00 | 0.00 | 91 | 1011.7 |
| 20260905064519 | 77 | 8 | 0.0 | 0.0 | 0.00 | 0.00 | 0.00 | 90 | 1011.7 |
| 20260905063017 | 77 | 8 | 0.0 | 0.0 | 0.00 | 0.00 | 0.00 | 89 | 1011.8 |
| 20260905061515 | 78 | 6 | 0.0 | 0.0 | 0.00 | 0.00 | 0.00 | 87 | 1011.9 |
| 20260905060013 | 78 | 7 | 0.0 | 0.0 | 0.00 | 0.00 | 0.00 | 86 | 1012.0 |